When you browse on this site, cookies collect data to enhance your experience and personalize the content and advertising you see.
Visit our Privacy Policy to learn more. By continuing to use the site, you agree to this use of cookies and data.
  • In Österreich
  • Länderverzeichnis
  • Für 7 Tage
  • Wassertemperatur
  • Wetterkarte
  • News
  • Widgets
  • user-avatar
    Anmelden

    Stündliche Wetter Trinidad

    Heute, 25 Januar, Samstag

    Zeit Temperatur Niederschläge Wind Luftdruck Luftfeuchtigkeit
    00:00 +26°C° 0 mm 0 m/S 742 mmHg 73%
    01:00 +26°C° 0 mm 0 m/S 742 mmHg 74%
    02:00 +25°C° 0 mm 0 m/S 742 mmHg 70%
    03:00 +25°C° 0 mm 0 m/S 742 mmHg 71%
    04:00 +25°C° 0 mm 0 m/S 741 mmHg 73%
    05:00 +27°C° 0 mm 1 m/S 741 mmHg 74%
    06:00 +27°C° 0 mm 1 m/S 742 mmHg 75%
    07:00 +28°C° 0 mm 1 m/S 743 mmHg 76%
    08:00 +29°C° 0 mm 1 m/S 744 mmHg 77%
    09:00 +31°C° 0.1 mm 1 m/S 744 mmHg 71%
    10:00 +32°C° 0.1 mm 1 m/S 744 mmHg 65%
    11:00 +35°C° 0.1 mm 2 m/S 744 mmHg 59%
    12:00 +36°C° 0 mm 2 m/S 744 mmHg 57%
    13:00 +36°C° 0 mm 2 m/S 743 mmHg 55%
    14:00 +37°C° 0 mm 2 m/S 742 mmHg 53%
    15:00 +36°C° 0 mm 2 m/S 741 mmHg 54%
    16:00 +36°C° 0 mm 2 m/S 741 mmHg 56%
    17:00 +36°C° 0 mm 2 m/S 740 mmHg 58%
    18:00 +34°C° 0 mm 2 m/S 740 mmHg 65%
    19:00 +31°C° 0 mm 1 m/S 741 mmHg 72%
    20:00 +29°C° 0 mm 1 m/S 741 mmHg 79%
    21:00 +29°C° 0 mm 1 m/S 742 mmHg 80%
    22:00 +28°C° 0 mm 1 m/S 742 mmHg 82%
    23:00 +28°C° 0 mm 1 m/S 743 mmHg 83%

    Morgen, 26 Januar, Sonntag

    Zeit Temperatur Niederschläge Wind Luftdruck Luftfeuchtigkeit
    00:00 +28°C° 0 mm 1 m/S 743 mmHg 85%
    01:00 +27°C° 0 mm 1 m/S 742 mmHg 86%
    02:00 +27°C° 0 mm 2 m/S 742 mmHg 87%
    03:00 +27°C° 0 mm 1 m/S 742 mmHg 88%
    04:00 +26°C° 0 mm 1 m/S 742 mmHg 90%
    05:00 +26°C° 0 mm 1 m/S 741 mmHg 91%
    06:00 +27°C° 0 mm 1 m/S 742 mmHg 87%
    07:00 +28°C° 0 mm 1 m/S 742 mmHg 82%
    08:00 +29°C° 0 mm 1 m/S 743 mmHg 78%
    09:00 +31°C° 0 mm 1 m/S 743 mmHg 70%
    10:00 +34°C° 0 mm 2 m/S 743 mmHg 62%
    11:00 +36°C° 0 mm 2 m/S 743 mmHg 54%
    12:00 +36°C° 0 mm 2 m/S 742 mmHg 52%
    13:00 +37°C° 0 mm 2 m/S 741 mmHg 51%
    14:00 +38°C° 0 mm 2 m/S 741 mmHg 49%
    15:00 +37°C° 0 mm 2 m/S 740 mmHg 52%
    16:00 +37°C° 0 mm 2 m/S 739 mmHg 56%
    17:00 +36°C° 0 mm 2 m/S 739 mmHg 59%
    18:00 +34°C° 0 mm 2 m/S 739 mmHg 66%
    19:00 +31°C° 0 mm 2 m/S 739 mmHg 73%
    20:00 +30°C° 0 mm 1 m/S 740 mmHg 80%
    21:00 +29°C° 0 mm 1 m/S 740 mmHg 81%
    22:00 +29°C° 0 mm 1 m/S 741 mmHg 83%
    23:00 +28°C° 0 mm 1 m/S 742 mmHg 84%

    übermorgen, 27 Januar, Montag

    Zeit Temperatur Niederschläge Wind Luftdruck Luftfeuchtigkeit
    00:00 +28°C° 0 mm 1 m/S 741 mmHg 84%
    01:00 +28°C° 0 mm 1 m/S 741 mmHg 85%
    02:00 +28°C° 0 mm 1 m/S 740 mmHg 85%
    03:00 +27°C° 0 mm 1 m/S 741 mmHg 86%
    04:00 +27°C° 0 mm 1 m/S 741 mmHg 86%
    05:00 +27°C° 0 mm 1 m/S 741 mmHg 87%
    06:00 +28°C° 0 mm 1 m/S 741 mmHg 84%
    07:00 +29°C° 0 mm 1 m/S 742 mmHg 81%
    08:00 +30°C° 0 mm 1 m/S 743 mmHg 77%
    09:00 +32°C° 0 mm 1 m/S 743 mmHg 70%
    10:00 +34°C° 0 mm 1 m/S 743 mmHg 62%
    11:00 +37°C° 0 mm 2 m/S 743 mmHg 55%
    12:00 +38°C° 0 mm 2 m/S 742 mmHg 50%
    13:00 +39°C° 0 mm 1 m/S 742 mmHg 46%
    14:00 +40°C° 0 mm 1 m/S 741 mmHg 42%
    15:00 +39°C° 0 mm 1 m/S 740 mmHg 44%
    16:00 +39°C° 0 mm 1 m/S 740 mmHg 46%
    17:00 +37°C° 0 mm 1 m/S 739 mmHg 48%
    18:00 +34°C° 0.3 mm 1 m/S 739 mmHg 58%
    19:00 +32°C° 0.3 mm 1 m/S 739 mmHg 69%
    20:00 +29°C° 0.3 mm 1 m/S 740 mmHg 79%
    21:00 +29°C° 0.1 mm 1 m/S 740 mmHg 81%
    22:00 +29°C° 0.1 mm 1 m/S 741 mmHg 83%
    23:00 +28°C° 0.1 mm 1 m/S 741 mmHg 86%

    28 Januar, Dienstag

    Zeit Temperatur Niederschläge Wind Luftdruck Luftfeuchtigkeit
    00:00 +28°C° 0 mm 1 m/S 741 mmHg 85%
    01:00 +28°C° 0 mm 1 m/S 741 mmHg 85%
    02:00 +28°C° 0 mm 1 m/S 741 mmHg 85%
    03:00 +28°C° 0.6 mm 1 m/S 741 mmHg 87%
    04:00 +27°C° 0.6 mm 1 m/S 741 mmHg 89%
    05:00 +27°C° 0.6 mm 1 m/S 741 mmHg 92%
    06:00 +27°C° 1.3 mm 1 m/S 742 mmHg 92%
    07:00 +25°C° 1.3 mm 0 m/S 742 mmHg 92%
    08:00 +26°C° 1.3 mm 0 m/S 743 mmHg 91%
    09:00 +30°C° 0.2 mm 1 m/S 743 mmHg 81%
    10:00 +33°C° 0.2 mm 1 m/S 743 mmHg 70%
    11:00 +35°C° 0.2 mm 1 m/S 743 mmHg 60%
    12:00 +35°C° 0.7 mm 1 m/S 742 mmHg 59%
    13:00 +35°C° 0.7 mm 1 m/S 741 mmHg 58%
    14:00 +36°C° 0.7 mm 2 m/S 740 mmHg 57%
    15:00 +36°C° 0.1 mm 2 m/S 740 mmHg 58%
    16:00 +36°C° 0.1 mm 2 m/S 739 mmHg 60%
    17:00 +35°C° 0.1 mm 2 m/S 738 mmHg 62%
    18:00 +34°C° 0 mm 2 m/S 739 mmHg 68%
    19:00 +31°C° 0 mm 2 m/S 739 mmHg 73%
    20:00 +29°C° 0 mm 2 m/S 739 mmHg 79%
    21:00 +29°C° 0 mm 2 m/S 740 mmHg 80%
    22:00 +28°C° 0 mm 2 m/S 740 mmHg 81%
    23:00 +28°C° 0 mm 2 m/S 741 mmHg 82%

    29 Januar, Mittwoch

    Zeit Temperatur Niederschläge Wind Luftdruck Luftfeuchtigkeit
    00:00 +28°C° 0 mm 2 m/S 740 mmHg 84%
    01:00 +27°C° 0 mm 1 m/S 740 mmHg 85%
    02:00 +27°C° 0 mm 1 m/S 740 mmHg 87%
    03:00 +27°C° 0 mm 2 m/S 740 mmHg 88%
    04:00 +27°C° 0 mm 2 m/S 739 mmHg 88%
    05:00 +27°C° 0 mm 2 m/S 739 mmHg 89%
    06:00 +27°C° 0 mm 2 m/S 740 mmHg 86%
    07:00 +28°C° 0 mm 3 m/S 741 mmHg 84%
    08:00 +29°C° 0 mm 3 m/S 742 mmHg 81%
    09:00 +30°C° 0.1 mm 3 m/S 742 mmHg 76%
    10:00 +31°C° 0.1 mm 3 m/S 742 mmHg 71%
    11:00 +34°C° 0.1 mm 4 m/S 742 mmHg 66%
    12:00 +34°C° 0.7 mm 4 m/S 741 mmHg 68%
    13:00 +33°C° 0.7 mm 4 m/S 740 mmHg 69%
    14:00 +33°C° 0.7 mm 4 m/S 740 mmHg 70%
    15:00 +33°C° 0.1 mm 3 m/S 739 mmHg 71%
    16:00 +33°C° 0.1 mm 3 m/S 739 mmHg 71%
    17:00 +32°C° 0.1 mm 2 m/S 739 mmHg 71%
    18:00 +31°C° 0.6 mm 2 m/S 739 mmHg 77%
    19:00 +29°C° 0.6 mm 2 m/S 740 mmHg 83%
    20:00 +28°C° 0.6 mm 2 m/S 740 mmHg 89%
    21:00 +27°C° 0.7 mm 3 m/S 741 mmHg 90%
    22:00 +27°C° 0.7 mm 3 m/S 741 mmHg 92%
    23:00 +26°C° 0.7 mm 3 m/S 742 mmHg 93%

    30 Januar, Donnerstag

    Zeit Temperatur Niederschläge Wind Luftdruck Luftfeuchtigkeit
    00:00 +26°C° 0.1 mm 3 m/S 742 mmHg 93%
    01:00 +26°C° 0.1 mm 2 m/S 741 mmHg 93%
    02:00 +26°C° 0.1 mm 2 m/S 741 mmHg 94%
    03:00 +26°C° 0 mm 2 m/S 741 mmHg 94%
    04:00 +26°C° 0 mm 2 m/S 741 mmHg 95%
    05:00 +25°C° 0 mm 1 m/S 742 mmHg 95%
    06:00 +26°C° 0 mm 1 m/S 742 mmHg 94%
    07:00 +26°C° 0 mm 1 m/S 743 mmHg 94%
    08:00 +26°C° 0 mm 1 m/S 744 mmHg 93%
    09:00 +27°C° 0.3 mm 2 m/S 744 mmHg 91%
    10:00 +28°C° 0.3 mm 2 m/S 744 mmHg 88%
    11:00 +28°C° 0.3 mm 2 m/S 745 mmHg 86%
    12:00 +29°C° 1.1 mm 2 m/S 744 mmHg 85%
    13:00 +29°C° 1.1 mm 2 m/S 743 mmHg 84%
    14:00 +29°C° 1.1 mm 2 m/S 743 mmHg 83%
    15:00 +29°C° 1.5 mm 1 m/S 743 mmHg 85%
    16:00 +29°C° 1.5 mm 1 m/S 742 mmHg 87%
    17:00 +28°C° 1.5 mm 1 m/S 742 mmHg 89%
    18:00 +28°C° 1.4 mm 1 m/S 742 mmHg 91%
    19:00 +27°C° 1.4 mm 1 m/S 743 mmHg 93%
    20:00 +26°C° 1.4 mm 1 m/S 743 mmHg 95%
    21:00 +24°C° 0.9 mm 0 m/S 744 mmHg 96%
    22:00 +24°C° 0.9 mm 0 m/S 744 mmHg 96%
    23:00 +23°C° 0.9 mm 0 m/S 745 mmHg 96%
    Mehr zeigen